LiveATC.Net - Listen to live air traffic control over the Internet!


ICAO: S50  IATA: S50   Airport: Auburn Municipal Airport
City: Auburn   State/Province: Washington
Country: United States   Continent: North America
KSEA METAR Weather: KSEA 191153Z 22004KT 10SM -DZ BKN025 OVC030 11/10 A2985 RMK AO2 DZB51 SLP115 P0000 60000 70058 T01110100 10117 20106 53010
S50 Flight Activity (FlightAware)
S50 Webcam:  (Airport Webcams) 

Auburn CTAF
Feed Status: DOWN
Last heard on: 2021-09-19 09:09:39 (0 days 2 hours 52 minutes ago)
Archive Access: Auburn CTAF
FacilityFrequency
Auburn CTAF/UNICOM122.800
Feed sponsored by: Auburn Municipal Airport

NOTICE

Unauthorized use prohibited. See LiveATC.net Terms of Service


Airport/ARTCC Code
Frequency Search
(e.g., 124.400, 128.75)
Site-wide search
 


Browse Feeds
Top 50 Feeds
HF Oceanic Feeds
Coverage Map
Bad Weather Areas

LiveATC FAQ
Offer LiveATC feed
Contact LiveATC.net
Press Inquiries

LiveATC on iPhone
LiveATC on Android

Windows Phone
Windows 8/10

LiveATC Mobile
(Mobile browser)

ATC Audio Archives
Interesting Recordings

LiveATC Forums


Home Page
About LiveATC.net
Make a Donation
Terms of Use
Privacy Policy

Canadian Air Freqs

AIRMETs/SIGMETs

FAA Airport Status
NAS Status
Arrival Demand


Server Software By:
Icecast.org
Liquidsoap